Location: Adkins Bottom
(34.6873°N, 88.9956°W)
Time: 06:21:40
(UTC+00:00)

Daily predictions for brighter satellites

Satellite Brightness Start Highest point End
(mag) Time Altitude Azimuth Time Altitude Azimuth Time Altitude Azimuth
Aureole 3 Rocket 3.7 23:24:49 10° SSE 23:28:02 31° E 23:32:08 10° NNE
Cosmos 1741 Rocket 4.3 23:24:43 10° NNW 23:29:56 75° WSW 23:35:07 10° S
Cosmos 1758 Rocket 3.6 23:27:10 10° N 23:31:34 88° E 23:35:53 10° S
Milstar 3 3.5 23:24:15 10° WSW 23:31:43 49° S 23:38:06 10° E
Cosmos 1689 Rocket 3.1 23:30:02 10° NE 23:32:29 25° E 23:34:55 10° SSE
Helios 1A Rocket 4.4 23:31:26 10° ESE 23:34:09 17° ENE 23:36:50 10° NNE
Cosmos 1606 Rocket 3.8 23:33:17 10° S 23:37:36 76° W 23:42:01 10° N
Cosmos 1400 Rocket 2.9 23:39:15 10° S 23:43:17 57° E 23:47:19 10° NNE
Timation 2 Rocket 4.3 23:37:18 10° NNW 23:43:48 52° ENE 23:50:26 10° SE
Meteor 2-10 Rocket 4.4 23:39:24 10° SSE 23:43:56 28° E 23:48:20 10° NNE
Okean-O 3.8 23:42:27 10° ESE 23:45:51 22° ENE 23:49:16 10° NNE
Meteor 2-21 Rocket 4.4 23:39:57 10° N 23:46:07 74° E 23:52:12 10° SSE
Cosmos 2219 3.9 23:41:12 10° N 23:46:22 33° ENE 23:51:29 10° SE
CZ-4 R/B 2.6 23:47:15 10° ESE 23:50:06 20° ENE 23:52:54 10° NNE
USA 281 3.4 23:44:47 10° SSE 23:51:21 81° WSW 23:57:57 10° NNW
SKYMED 2 3.5 23:47:46 10° NNE 23:52:06 65° E 23:56:23 10° S
OAO 2 Rocket 3.3 23:48:18 10° WSW 23:53:19 76° SSE 23:57:25 15° E
Cosmos 1892 3.8 23:51:01 10° NNE 23:54:10 23° ENE 23:57:18 10° SE
Cosmos 220 Rocket 4.5 23:51:14 10° S 23:55:14 38° ESE 23:59:17 10° NE
Cosmos 1408 4.3 23:53:28 10° NE 23:54:58 14° ENE 23:54:58 14° ENE
